    Orbital elements:
    2017 EH4                                                 Earth MOID = 0.0646 AU
    Epoch 2017 Feb. 16.0 TT = JDT 2457800.5                 MPC
    M   1.78864              (2000.0)            P               Q
    n   0.42128002     Peri.  137.38865     -0.76033178     -0.64952059
    a   1.7623364      Node     2.11987     +0.56012561     -0.65901814
    e   0.4223085      Incl.    6.69469     +0.32886911     -0.37923356
    P   2.34           H   23.9           G   0.15           U   6
    Residuals in seconds of arc
    170308 G96  0.7-  0.3+    170308 300  1.3+  1.2+    170310 I52  0.2-  0.9-
    170308 G96  0.6-  0.5-    170308 300  1.6+  1.4+    170310 G96  0.2+  0.5-
    170308 G96  0.2-  0.3+    170308 300  0.5+  0.8+    170310 G96  0.2+  0.2+
    170308 G96  0.6+  0.2+    170309 G37  0.8-  0.2+    170310 G96  0.1+  0.1+
    170308 W25  1.1+  0.9-    170309 G37  1.0-  0.2+    170310 G96  0.1+  0.1-
    170308 W25  0.3-  0.2-    170309 G37  0.8-  0.0     170310 K61  0.2+  0.7+
    170308 G96  0.3+  0.1+    170309 G37  0.5-  0.1-    170310 K61  0.2+  0.4+
    170308 G96  0.1-  0.1-    170309 G37  0.3-  0.2-    170310 K61  0.1+  0.3+
    170308 G96  0.3+  0.0     170309 I52  0.1-  0.0     170310 160  0.2+  0.2+
    170308 G96  0.1+  0.6-    170309 I52  0.2+  0.0     170310 160  0.3+  0.2-
    170308 H01  0.3-  0.1-    170309 I52  0.1-  0.1+    170310 160  0.3+  0.1+
    170308 H01  0.1-  0.3-    170309 I52  0.4-  0.4+    170310 595  0.2+  0.8-
    170308 H01  0.2-  0.1-    170309 G37  0.4-  0.3-    170310 595  0.4-  1.0-
    170308 H01  0.1-  0.1-    170309 G37  0.4-  0.2-    170311 W25  0.3+  0.2+
    170308 I52  0.1+  0.0     170309 H21  0.4-  0.2+    170311 W25  0.6-  0.1+
    170308 I52  0.0   0.3-    170309 H21  0.5-  0.2+    170312 J95  0.1+  0.1-
    170308 I52  0.1-  0.2-    170309 H21  0.3-  0.0     170313 J95  0.1-  0.1+
    170308 I52  0.1-  0.3+    170309 H21  0.1-  0.1+    170313 J95  0.4-  0.2+
    170308 G96  0.1-  0.5-    170309 926  0.4-  0.5+    170313 J95  0.5+  0.0
    170308 G96  0.1-  0.4-    170309 926  0.3-  0.5-    170313 104  0.2+  0.5-
    170308 G96  0.1+  0.0     170310 I52  0.2-  0.6-    170313 104  0.0   0.2-
    170308 G96  0.2+  0.4-    170310 I52  0.0   0.1-
    170308 300  1.7+  1.0+    170310 I52  0.4+  0.3-
    
    Ephemeris:
    2017 EH4                 a,e,i = 1.76, 0.42, 7                   q = 1.0181
    Date    TT    R. A. (2000) Decl.     Delta      r     Elong.  Phase     V
    2017 02 11    03 52 05.7 +73 17 06   0.1045  1.0181   104.5    69.8    21.5
    ...
    2017 02 26    09 54 55.9 +65 46 26   0.07112 1.0302   122.6    54.1    20.2
    ...
    2017 03 06    11 12 07.8 +41 47 21   0.06722 1.0472   144.0    33.9    19.5
    ...
    2017 03 12    11 36 18.0 +23 09 42   0.07478 1.0642   160.2    18.5    19.4
    2017 03 13    11 39 04.5 +20 25 47   0.07687 1.0674   162.5    16.2    19.3
    2017 03 14    11 41 36.1 +17 50 05   0.07917 1.0707   164.7    14.2    19.3
    ...
    2017 03 20    11 52 53.0 +05 08 58   0.09677 1.0922   175.0     4.6    19.4
    ...
    2017 03 28    12 01 54.1 -05 26 22   0.1281  1.1254   173.3     5.9    20.2
    ...
    2017 04 12    12 13 04.9 -14 40 07   0.2043  1.1985   162.2    14.8    21.7
    
    A. U. Tomatic                (C) Copyright 2017 MPC           M.P.E.C. 2017-E91
    

    Read MPEC 2017-E90 Read MPEC 2017-E92


    MPEC number:

    Enter an MPEC number in one of the following forms:

    • 1997-B01 (the full form)
    • J97B01 (the packed version of the full form)
    • B01 (the abbreviated form)